Time,TemperatureF,DewpointF,PressureIn,WindDirection,WindDirectionDegrees,WindSpeedMPH,WindSpeedGustMPH,Humidity,HourlyPrecipIn,Conditions,Clouds,dailyrainin,SolarRadiationWatts/m^2,SoftwareType,DateUTC
2013-03-06 00:00:00,33.5,28.0,29.99,NE,45,0.0,6.0,80,0.00,,,0.00,0,Wunderground v.1.15,2013-03-06 05:00:00,
2013-03-06 00:06:00,33.3,28.1,29.99,ENE,78,5.0,7.0,81,0.00,,,0.00,0,Wunderground v.1.15,2013-03-06 05:06:00,
2013-03-06 00:11:00,33.3,28.1,29.99,ENE,60,0.0,3.0,81,0.00,,,0.00,0,Wunderground v.1.15,2013-03-06 05:11:00,
2013-03-06 00:17:00,33.2,28.0,29.99,NNE,27,0.0,3.0,81,0.00,,,0.00,0,Wunderground v.1.15,2013-03-06 05:17:00,
2013-03-06 00:22:00,33.0,27.8,29.99,East,84,1.0,6.0,81,0.00,,,0.00,0,Wunderground v.1.15,2013-03-06 05:22:00,
2013-03-06 00:28:00,33.0,28.1,29.99,NE,46,0.0,6.0,82,0.00,,,0.00,0,Wunderground v.1.15,2013-03-06 05:28:00,
2013-03-06 00:33:00,33.1,28.2,29.98,East,81,4.0,4.0,82,0.00,,,0.00,0,Wunderground v.1.15,2013-03-06 05:33:00,
2013-03-06 00:39:00,33.1,28.2,29.98,ENE,69,1.0,7.0,82,0.00,,,0.00,0,Wunderground v.1.15,2013-03-06 05:39:00,
2013-03-06 00:44:00,33.3,28.7,29.98,NNE,22,0.0,3.0,83,0.00,,,0.00,0,Wunderground v.1.15,2013-03-06 05:44:00,
2013-03-06 00:50:00,33.4,28.5,29.98,NE,44,0.0,5.0,82,0.00,,,0.00,0,Wunderground v.1.15,2013-03-06 05:50:00,
2013-03-06 00:56:00,33.5,28.9,29.97,ENE,74,11.0,11.0,83,0.00,,,0.00,0,Wunderground v.1.15,2013-03-06 05:56:00,
2013-03-06 01:01:00,33.5,28.9,29.97,ESE,104,0.0,4.0,83,0.00,,,0.00,0,Wunderground v.1.15,2013-03-06 06:01:00,
2013-03-06 01:07:00,33.7,29.4,29.97,East,89,6.0,9.0,84,0.00,,,0.00,0,Wunderground v.1.15,2013-03-06 06:07:00,
2013-03-06 01:12:00,34.0,29.7,29.97,NE,35,4.0,6.0,84,0.00,,,0.00,0,Wunderground v.1.15,2013-03-06 06:12:00,
2013-03-06 01:18:00,34.1,29.8,29.97,ENE,77,8.0,8.0,84,0.00,,,0.00,0,Wunderground v.1.15,2013-03-06 06:18:00,
2013-03-06 01:24:00,34.2,29.9,29.96,East,83,6.0,8.0,84,0.00,,,0.00,0,Wunderground v.1.15,2013-03-06 06:24:00,
2013-03-06 01:30:00,34.3,30.0,29.96,East,79,10.0,10.0,84,0.00,,,0.00,0,Wunderground v.1.15,2013-03-06 06:30:00,
2013-03-06 01:35:00,34.4,30.4,29.96,East,80,0.0,8.0,85,0.00,,,0.00,0,Wunderground v.1.15,2013-03-06 06:35:00,
2013-03-06 01:40:00,34.5,30.5,29.95,East,94,5.0,8.0,85,0.00,,,0.00,0,Wunderground v.1.15,2013-03-06 06:40:00,
2013-03-06 01:46:00,34.6,30.6,29.95,NNE,25,1.0,12.0,85,0.00,,,0.00,0,Wunderground v.1.15,2013-03-06 06:46:00,
2013-03-06 01:51:00,34.8,30.8,29.94,North,354,0.0,5.0,85,0.00,,,0.00,0,Wunderground v.1.15,2013-03-06 06:51:00,
2013-03-06 01:56:00,34.8,30.8,29.93,NE,55,5.0,11.0,85,0.00,,,0.00,0,Wunderground v.1.15,2013-03-06 06:56:00,
2013-03-06 02:01:00,34.9,31.1,29.93,NNE,16,0.0,4.0,86,0.00,,,0.00,0,Wunderground v.1.15,2013-03-06 07:01:00,
2013-03-06 02:06:00,35.0,30.9,29.93,ENE,69,2.0,8.0,85,0.00,,,0.00,0,Wunderground v.1.15,2013-03-06 07:06:00,
2013-03-06 02:11:00,35.1,31.0,29.93,NE,54,5.0,6.0,85,0.00,,,0.00,0,Wunderground v.1.15,2013-03-06 07:11:00,
2013-03-06 02:16:00,35.1,31.0,29.92,East,97,2.0,12.0,85,0.00,,,0.00,0,Wunderground v.1.15,2013-03-06 07:16:00,
2013-03-06 02:21:00,35.2,31.1,29.92,ENE,57,4.0,5.0,85,0.00,,,0.00,0,Wunderground v.1.15,2013-03-06 07:21:00,
2013-03-06 02:26:00,35.3,31.2,29.92,SE,129,0.0,13.0,85,0.00,,,0.00,0,Wunderground v.1.15,2013-03-06 07:26:00,
2013-03-06 02:31:00,35.4,31.3,29.91,ENE,70,2.0,11.0,85,0.00,,,0.00,0,Wunderground v.1.15,2013-03-06 07:31:00,
2013-03-06 02:36:00,35.6,31.5,29.91,ESE,106,12.0,15.0,85,0.00,,,0.00,0,Wunderground v.1.15,2013-03-06 07:36:00,
2013-03-06 02:41:00,35.6,31.8,29.91,ESE,104,12.0,15.0,86,0.00,,,0.00,0,Wunderground v.1.15,2013-03-06 07:41:00,
2013-03-06 02:46:00,35.8,31.7,29.91,ENE,61,6.0,15.0,85,0.00,,,0.00,0,Wunderground v.1.15,2013-03-06 07:46:00,
2013-03-06 02:51:00,36.0,31.9,29.90,ESE,104,9.0,13.0,85,0.00,,,0.00,0,Wunderground v.1.15,2013-03-06 07:51:00,
2013-03-06 02:56:00,36.1,32.0,29.90,ESE,102,11.0,17.0,85,0.00,,,0.00,0,Wunderground v.1.15,2013-03-06 07:56:00,
2013-03-06 03:01:00,36.3,32.2,29.90,ESE,104,11.0,11.0,85,0.00,,,0.00,0,Wunderground v.1.15,2013-03-06 08:01:00,
2013-03-06 03:06:00,36.3,32.2,29.89,East,100,12.0,17.0,85,0.00,,,0.00,0,Wunderground v.1.15,2013-03-06 08:06:00,
2013-03-06 03:12:00,36.4,32.0,29.89,ENE,63,10.0,18.0,84,0.00,,,0.00,0,Wunderground v.1.15,2013-03-06 08:12:00,
2013-03-06 03:17:00,36.4,32.0,29.89,NE,51,12.0,18.0,84,0.00,,,0.00,0,Wunderground v.1.15,2013-03-06 08:17:00,
2013-03-06 03:22:00,36.5,32.1,29.89,NE,55,5.0,11.0,84,0.00,,,0.00,0,Wunderground v.1.15,2013-03-06 08:22:00,
2013-03-06 03:27:00,36.6,32.2,29.89,East,98,9.0,14.0,84,0.00,,,0.00,0,Wunderground v.1.15,2013-03-06 08:27:00,
2013-03-06 03:32:00,36.7,32.3,29.88,East,85,13.0,13.0,84,0.00,,,0.00,0,Wunderground v.1.15,2013-03-06 08:32:00,
2013-03-06 03:37:00,36.8,32.4,29.89,East,81,12.0,15.0,84,0.00,,,0.00,0,Wunderground v.1.15,2013-03-06 08:37:00,
2013-03-06 03:42:00,36.9,32.5,29.88,East,101,8.0,12.0,84,0.00,,,0.00,0,Wunderground v.1.15,2013-03-06 08:42:00,
2013-03-06 03:47:00,36.9,32.5,29.88,East,98,2.0,13.0,84,0.00,,,0.00,0,Wunderground v.1.15,2013-03-06 08:47:00,
2013-03-06 03:52:00,37.0,32.3,29.88,East,87,2.0,20.0,83,0.00,,,0.00,0,Wunderground v.1.15,2013-03-06 08:52:00,
2013-03-06 03:57:00,37.1,32.4,29.88,NNW,345,7.0,20.0,83,0.00,,,0.00,0,Wunderground v.1.15,2013-03-06 08:57:00,
2013-03-06 04:02:00,37.0,32.3,29.87,NNE,19,6.0,12.0,83,0.00,,,0.00,0,Wunderground v.1.15,2013-03-06 09:02:00,
2013-03-06 04:07:00,37.1,32.4,29.87,NNW,332,8.0,16.0,83,0.00,,,0.00,0,Wunderground v.1.15,2013-03-06 09:07:00,
2013-03-06 04:12:00,37.1,32.4,29.87,SSE,166,6.0,18.0,83,0.00,,,0.00,0,Wunderground v.1.15,2013-03-06 09:12:00,
2013-03-06 04:17:00,37.1,32.4,29.87,NE,48,4.0,18.0,83,0.00,,,0.00,0,Wunderground v.1.15,2013-03-06 09:17:00,
2013-03-06 04:22:00,37.1,32.4,29.87,North,356,5.0,12.0,83,0.00,,,0.00,0,Wunderground v.1.15,2013-03-06 09:22:00,
2013-03-06 04:27:00,37.2,32.8,29.86,East,83,6.0,13.0,84,0.00,,,0.00,0,Wunderground v.1.15,2013-03-06 09:27:00,
2013-03-06 04:32:00,37.4,32.7,29.86,North,3,11.0,16.0,83,0.00,,,0.00,0,Wunderground v.1.15,2013-03-06 09:32:00,
2013-03-06 04:37:00,37.6,32.9,29.86,West,275,7.0,16.0,83,0.00,,,0.00,0,Wunderground v.1.15,2013-03-06 09:37:00,
2013-03-06 04:42:00,37.8,33.1,29.86,ENE,69,11.0,16.0,83,0.00,,,0.00,0,Wunderground v.1.15,2013-03-06 09:42:00,
2013-03-06 04:47:00,38.0,33.0,29.86,NE,53,14.0,16.0,82,0.00,,,0.00,0,Wunderground v.1.15,2013-03-06 09:47:00,
2013-03-06 04:52:00,38.1,33.1,29.86,North,4,5.0,13.0,82,0.00,,,0.00,0,Wunderground v.1.15,2013-03-06 09:52:00,
2013-03-06 04:57:00,38.2,33.2,29.86,East,98,13.0,26.0,82,0.00,,,0.00,0,Wunderground v.1.15,2013-03-06 09:57:00,
2013-03-06 05:02:00,38.3,33.0,29.86,ENE,78,8.0,15.0,81,0.00,,,0.00,0,Wunderground v.1.15,2013-03-06 10:02:00,
2013-03-06 05:07:00,38.3,32.7,29.85,ESE,116,9.0,16.0,80,0.00,,,0.00,0,Wunderground v.1.15,2013-03-06 10:07:00,
2013-03-06 05:12:00,38.4,32.8,29.86,SE,126,8.0,15.0,80,0.00,,,0.00,0,Wunderground v.1.15,2013-03-06 10:12:00,
2013-03-06 05:17:00,38.4,32.8,29.85,ENE,63,6.0,20.0,80,0.00,,,0.00,0,Wunderground v.1.15,2013-03-06 10:17:00,
2013-03-06 05:22:00,38.3,32.7,29.85,ENE,71,11.0,11.0,80,0.00,,,0.00,0,Wunderground v.1.15,2013-03-06 10:22:00,
2013-03-06 05:27:00,38.3,32.7,29.85,NNW,327,13.0,31.0,80,0.00,,,0.00,0,Wunderground v.1.15,2013-03-06 10:27:00,
2013-03-06 05:32:00,38.3,32.7,29.85,ENE,66,11.0,18.0,80,0.00,,,0.00,0,Wunderground v.1.15,2013-03-06 10:32:00,
2013-03-06 05:37:00,38.3,32.7,29.85,NNW,345,8.0,27.0,80,0.00,,,0.00,0,Wunderground v.1.15,2013-03-06 10:37:00,
2013-03-06 05:42:00,38.3,32.7,29.85,East,100,7.0,14.0,80,0.00,,,0.00,0,Wunderground v.1.15,2013-03-06 10:42:00,
2013-03-06 05:47:00,38.3,32.7,29.85,NNW,348,5.0,22.0,80,0.00,,,0.00,0,Wunderground v.1.15,2013-03-06 10:47:00,
2013-03-06 05:52:00,38.3,32.7,29.85,North,357,15.0,15.0,80,0.00,,,0.00,0,Wunderground v.1.15,2013-03-06 10:52:00,
2013-03-06 05:57:00,38.3,32.7,29.85,ESE,121,5.0,22.0,80,0.00,,,0.00,0,Wunderground v.1.15,2013-03-06 10:57:00,
2013-03-06 06:02:00,38.4,32.8,29.85,East,98,7.0,12.0,80,0.00,,,0.00,0,Wunderground v.1.15,2013-03-06 11:02:00,
2013-03-06 06:08:00,38.4,33.1,29.85,North,352,4.0,29.0,81,0.00,,,0.00,0,Wunderground v.1.15,2013-03-06 11:08:00,
2013-03-06 06:13:00,38.4,33.1,29.85,NNE,17,11.0,22.0,81,0.00,,,0.00,0,Wunderground v.1.15,2013-03-06 11:13:00,
2013-03-06 06:18:00,38.5,32.9,29.84,NNE,13,15.0,27.0,80,0.00,,,0.00,0,Wunderground v.1.15,2013-03-06 11:18:00,
2013-03-06 06:23:00,38.5,32.9,29.84,North,351,6.0,13.0,80,0.00,,,0.00,0,Wunderground v.1.15,2013-03-06 11:23:00,
2013-03-06 06:28:00,38.5,32.9,29.84,ESE,108,20.0,25.0,80,0.00,,,0.00,0,Wunderground v.1.15,2013-03-06 11:28:00,
2013-03-06 06:33:00,38.6,33.0,29.84,SE,125,4.0,15.0,80,0.00,,,0.00,0,Wunderground v.1.15,2013-03-06 11:33:00,
2013-03-06 06:38:00,38.6,33.0,29.85,ESE,104,15.0,21.0,80,0.00,,,0.00,0,Wunderground v.1.15,2013-03-06 11:38:00,
2013-03-06 06:43:00,38.7,32.7,29.84,East,90,5.0,16.0,79,0.00,,,0.00,0,Wunderground v.1.15,2013-03-06 11:43:00,
2013-03-06 06:48:00,38.8,32.8,29.85,North,358,3.0,21.0,79,0.00,,,0.00,5,Wunderground v.1.15,2013-03-06 11:48:00,
2013-03-06 06:53:00,38.8,33.2,29.85,NE,35,4.0,24.0,80,0.00,,,0.00,9,Wunderground v.1.15,2013-03-06 11:53:00,
2013-03-06 06:58:00,38.8,33.2,29.85,North,353,3.0,30.0,80,0.00,,,0.00,16,Wunderground v.1.15,2013-03-06 11:58:00,
2013-03-06 07:04:00,38.8,33.2,29.85,East,94,5.0,21.0,80,0.00,,,0.00,14,Wunderground v.1.15,2013-03-06 12:04:00,
2013-03-06 07:09:00,38.8,33.5,29.85,NNE,23,7.0,23.0,81,0.00,,,0.00,12,Wunderground v.1.15,2013-03-06 12:09:00,
2013-03-06 07:14:00,38.7,33.4,29.85,NE,54,17.0,28.0,81,0.00,,,0.00,11,Wunderground v.1.15,2013-03-06 12:14:00,
2013-03-06 07:19:00,38.7,33.4,29.86,NNW,327,6.0,28.0,81,0.00,,,0.00,11,Wunderground v.1.15,2013-03-06 12:19:00,
2013-03-06 07:24:00,38.7,33.4,29.86,NNW,337,20.0,23.0,81,0.00,,,0.00,11,Wunderground v.1.15,2013-03-06 12:24:00,
2013-03-06 07:29:00,38.6,33.6,29.86,NW,321,4.0,23.0,82,0.00,,,0.00,16,Wunderground v.1.15,2013-03-06 12:29:00,
2013-03-06 07:34:00,38.6,33.6,29.86,NE,51,10.0,12.0,82,0.00,,,0.00,12,Wunderground v.1.15,2013-03-06 12:34:00,
2013-03-06 07:39:00,38.6,33.6,29.86,WNW,291,8.0,21.0,82,0.00,,,0.00,12,Wunderground v.1.15,2013-03-06 12:39:00,
2013-03-06 07:44:00,38.6,33.6,29.86,ENE,58,17.0,21.0,82,0.00,,,0.00,19,Wunderground v.1.15,2013-03-06 12:44:00,
2013-03-06 07:49:00,38.7,33.7,29.86,ESE,112,11.0,22.0,82,0.00,,,0.00,23,Wunderground v.1.15,2013-03-06 12:49:00,
2013-03-06 07:54:00,38.7,33.7,29.85,ESE,111,11.0,28.0,82,0.00,,,0.00,18,Wunderground v.1.15,2013-03-06 12:54:00,
2013-03-06 07:59:00,38.7,33.4,29.85,ENE,76,11.0,29.0,81,0.00,,,0.00,18,Wunderground v.1.15,2013-03-06 12:59:00,
2013-03-06 08:04:00,38.9,33.6,29.85,ENE,67,11.0,25.0,81,0.00,,,0.00,23,Wunderground v.1.15,2013-03-06 13:04:00,
2013-03-06 08:09:00,39.0,33.4,29.85,NNW,344,12.0,25.0,80,0.00,,,0.00,33,Wunderground v.1.15,2013-03-06 13:09:00,
2013-03-06 08:14:00,39.1,33.8,29.84,NNE,25,15.0,31.0,81,0.00,,,0.00,40,Wunderground v.1.15,2013-03-06 13:14:00,
2013-03-06 08:19:00,38.7,34.0,29.85,ENE,78,10.0,31.0,83,0.00,,,0.00,26,Wunderground v.1.15,2013-03-06 13:19:00,
2013-03-06 08:25:00,38.4,34.3,29.85,WSW,239,3.0,20.0,85,0.00,,,0.00,42,Wunderground v.1.15,2013-03-06 13:25:00,
2013-03-06 08:30:00,38.5,34.1,29.84,WSW,253,10.0,29.0,84,0.00,,,0.00,51,Wunderground v.1.15,2013-03-06 13:30:00,
2013-03-06 08:35:00,38.7,34.0,29.85,NNW,344,8.0,25.0,83,0.00,,,0.00,65,Wunderground v.1.15,2013-03-06 13:35:00,
2013-03-06 08:40:00,38.9,33.9,29.84,WSW,246,8.0,25.0,82,0.00,,,0.00,63,Wunderground v.1.15,2013-03-06 13:40:00,
2013-03-06 08:45:00,39.0,34.3,29.84,SE,141,4.0,25.0,83,0.00,,,0.00,91,Wunderground v.1.15,2013-03-06 13:45:00,
2013-03-06 08:50:00,39.0,34.0,29.84,NNE,25,2.0,33.0,82,0.00,,,0.00,104,Wunderground v.1.15,2013-03-06 13:50:00,
2013-03-06 08:55:00,39.1,34.4,29.84,ESE,113,11.0,27.0,83,0.00,,,0.00,79,Wunderground v.1.15,2013-03-06 13:55:00,
2013-03-06 09:00:00,38.7,34.3,29.84,NE,44,6.0,27.0,84,0.00,,,0.00,47,Wunderground v.1.15,2013-03-06 14:00:00,
2013-03-06 09:05:00,38.0,34.5,29.85,NW,325,14.0,21.0,87,0.00,,,0.00,46,Wunderground v.1.15,2013-03-06 14:05:00,
2013-03-06 09:10:00,37.6,34.4,29.84,North,11,7.0,21.0,88,0.00,,,0.00,69,Wunderground v.1.15,2013-03-06 14:10:00,
2013-03-06 09:15:00,37.6,34.9,29.84,NNW,339,10.0,15.0,90,0.00,,,0.00,139,Wunderground v.1.15,2013-03-06 14:15:00,
2013-03-06 09:21:00,37.7,34.8,29.83,ESE,108,14.0,24.0,89,0.00,,,0.00,144,Wunderground v.1.15,2013-03-06 14:21:00,
2013-03-06 09:26:00,37.8,35.1,29.84,North,354,7.0,28.0,90,0.00,,,0.00,98,Wunderground v.1.15,2013-03-06 14:26:00,
2013-03-06 09:31:00,37.8,35.1,29.84,WSW,249,2.0,28.0,90,0.00,,,0.00,72,Wunderground v.1.15,2013-03-06 14:31:00,
2013-03-06 09:36:00,37.8,35.1,29.83,North,350,7.0,13.0,90,0.00,,,0.00,90,Wunderground v.1.15,2013-03-06 14:36:00,
2013-03-06 09:41:00,37.9,34.9,29.84,West,270,8.0,20.0,89,0.00,,,0.01,120,Wunderground v.1.15,2013-03-06 14:41:00,
2013-03-06 09:46:00,37.9,34.9,29.84,NNW,346,6.0,24.0,89,0.00,,,0.01,54,Wunderground v.1.15,2013-03-06 14:46:00,
2013-03-06 09:52:00,37.8,34.8,29.83,North,11,13.0,13.0,89,0.00,,,0.01,53,Wunderground v.1.15,2013-03-06 14:52:00,
2013-03-06 09:57:00,37.9,34.9,29.83,North,2,7.0,17.0,89,0.00,,,0.01,83,Wunderground v.1.15,2013-03-06 14:57:00,
2013-03-06 10:02:00,37.8,34.8,29.83,East,89,9.0,12.0,89,0.00,,,0.01,67,Wunderground v.1.15,2013-03-06 15:02:00,
2013-03-06 10:07:00,37.9,34.9,29.83,NNW,333,7.0,21.0,89,0.00,,,0.01,81,Wunderground v.1.15,2013-03-06 15:07:00,
2013-03-06 10:12:00,38.0,35.0,29.83,NW,312,4.0,14.0,89,0.00,,,0.01,67,Wunderground v.1.15,2013-03-06 15:12:00,
2013-03-06 10:17:00,37.9,34.9,29.83,North,4,18.0,21.0,89,0.00,,,0.01,42,Wunderground v.1.15,2013-03-06 15:17:00,
2013-03-06 10:22:00,37.9,34.9,29.83,North,11,13.0,21.0,89,0.00,,,0.01,72,Wunderground v.1.15,2013-03-06 15:22:00,
2013-03-06 10:27:00,38.1,34.9,29.83,NNE,33,11.0,21.0,88,0.00,,,0.01,91,Wunderground v.1.15,2013-03-06 15:27:00,
2013-03-06 10:32:00,38.1,34.9,29.82,North,6,12.0,30.0,88,0.00,,,0.01,77,Wunderground v.1.15,2013-03-06 15:32:00,
2013-03-06 10:37:00,38.1,34.9,29.82,North,11,12.0,30.0,88,0.00,,,0.01,153,Wunderground v.1.15,2013-03-06 15:37:00,
2013-03-06 10:42:00,38.1,35.1,29.83,NNW,339,8.0,15.0,89,0.00,,,0.01,139,Wunderground v.1.15,2013-03-06 15:42:00,
2013-03-06 10:47:00,38.2,35.2,29.83,NNW,337,6.0,20.0,89,0.00,,,0.01,149,Wunderground v.1.15,2013-03-06 15:47:00,
2013-03-06 10:52:00,38.3,35.3,29.82,NNE,22,23.0,29.0,89,0.00,,,0.01,130,Wunderground v.1.15,2013-03-06 15:52:00,
2013-03-06 10:57:00,38.5,35.5,29.83,SE,129,5.0,29.0,89,0.00,,,0.01,148,Wunderground v.1.15,2013-03-06 15:57:00,
2013-03-06 11:02:00,38.7,35.5,29.83,North,351,13.0,18.0,88,0.00,,,0.01,95,Wunderground v.1.15,2013-03-06 16:02:00,
2013-03-06 11:07:00,38.7,35.2,29.83,ESE,102,6.0,24.0,87,0.00,,,0.01,88,Wunderground v.1.15,2013-03-06 16:07:00,
2013-03-06 11:12:00,38.5,35.0,29.83,NNW,348,10.0,27.0,87,0.00,,,0.01,58,Wunderground v.1.15,2013-03-06 16:12:00,
2013-03-06 11:17:00,38.5,35.3,29.84,North,356,3.0,27.0,88,0.00,,,0.01,67,Wunderground v.1.15,2013-03-06 16:17:00,
2013-03-06 11:23:00,38.7,35.5,29.83,North,5,13.0,22.0,88,0.00,,,0.01,70,Wunderground v.1.15,2013-03-06 16:23:00,
2013-03-06 11:28:00,38.7,35.5,29.83,ENE,60,9.0,28.0,88,0.00,,,0.01,54,Wunderground v.1.15,2013-03-06 16:28:00,
2013-03-06 11:33:00,38.6,35.4,29.83,ESE,112,10.0,19.0,88,0.00,,,0.01,58,Wunderground v.1.15,2013-03-06 16:33:00,
2013-03-06 11:38:00,38.6,35.4,29.83,North,351,13.0,25.0,88,0.00,,,0.01,67,Wunderground v.1.15,2013-03-06 16:38:00,
2013-03-06 11:43:00,38.6,35.4,29.83,West,270,5.0,12.0,88,0.00,,,0.01,65,Wunderground v.1.15,2013-03-06 16:43:00,
2013-03-06 11:48:00,38.6,35.6,29.82,NNE,14,9.0,19.0,89,0.00,,,0.01,81,Wunderground v.1.15,2013-03-06 16:48:00,
2013-03-06 11:53:00,38.6,35.6,29.82,North,7,26.0,26.0,89,0.00,,,0.01,121,Wunderground v.1.15,2013-03-06 16:53:00,
2013-03-06 11:58:00,38.8,36.1,29.82,NNE,13,16.0,26.0,90,0.00,,,0.02,135,Wunderground v.1.15,2013-03-06 16:58:00,
2013-03-06 12:03:00,38.9,35.9,29.82,North,360,8.0,14.0,89,0.00,,,0.02,123,Wunderground v.1.15,2013-03-06 17:03:00,
2013-03-06 12:08:00,39.0,35.7,29.82,NNW,348,12.0,18.0,88,0.00,,,0.02,79,Wunderground v.1.15,2013-03-06 17:08:00,
2013-03-06 12:13:00,38.9,35.9,29.82,NNW,347,13.0,16.0,89,0.00,,,0.02,72,Wunderground v.1.15,2013-03-06 17:13:00,
2013-03-06 12:18:00,38.9,35.6,29.82,ENE,77,13.0,28.0,88,0.00,,,0.02,56,Wunderground v.1.15,2013-03-06 17:18:00,
2013-03-06 12:23:00,39.0,35.7,29.81,NE,45,12.0,20.0,88,0.00,,,0.02,49,Wunderground v.1.15,2013-03-06 17:23:00,
2013-03-06 12:28:00,39.1,35.6,29.82,NNW,333,12.0,21.0,87,0.00,,,0.02,47,Wunderground v.1.15,2013-03-06 17:28:00,
2013-03-06 12:33:00,39.2,35.4,29.82,NNW,329,7.0,24.0,86,0.00,,,0.02,62,Wunderground v.1.15,2013-03-06 17:33:00,
2013-03-06 12:38:00,39.3,35.2,29.81,NNE,22,9.0,28.0,85,0.00,,,0.02,62,Wunderground v.1.15,2013-03-06 17:38:00,
2013-03-06 12:44:00,39.6,35.2,29.81,NNE,25,13.0,20.0,84,0.00,,,0.02,84,Wunderground v.1.15,2013-03-06 17:44:00,
2013-03-06 12:49:00,39.7,35.3,29.81,East,80,16.0,23.0,84,0.00,,,0.02,62,Wunderground v.1.15,2013-03-06 17:49:00,
2013-03-06 12:54:00,39.7,35.3,29.81,North,4,8.0,15.0,84,0.00,,,0.02,90,Wunderground v.1.15,2013-03-06 17:54:00,
2013-03-06 12:59:00,39.8,35.4,29.81,ESE,105,9.0,35.0,84,0.00,,,0.02,105,Wunderground v.1.15,2013-03-06 17:59:00,
2013-03-06 13:04:00,39.9,35.5,29.81,NNE,27,30.0,30.0,84,0.00,,,0.02,125,Wunderground v.1.15,2013-03-06 18:04:00,
2013-03-06 13:09:00,39.9,35.8,29.81,North,354,20.0,30.0,85,0.00,,,0.02,139,Wunderground v.1.15,2013-03-06 18:09:00,
2013-03-06 13:14:00,39.9,35.8,29.80,NNW,348,11.0,31.0,85,0.00,,,0.03,123,Wunderground v.1.15,2013-03-06 18:14:00,
2013-03-06 13:19:00,40.0,35.6,29.81,ENE,73,17.0,31.0,84,0.00,,,0.03,98,Wunderground v.1.15,2013-03-06 18:19:00,
2013-03-06 13:25:00,40.1,35.4,29.80,NE,55,11.0,20.0,83,0.00,,,0.03,105,Wunderground v.1.15,2013-03-06 18:25:00,
2013-03-06 13:30:00,40.1,35.4,29.81,SSW,201,6.0,32.0,83,0.00,,,0.03,90,Wunderground v.1.15,2013-03-06 18:30:00,
2013-03-06 13:35:00,40.3,35.2,29.80,SSW,193,8.0,35.0,82,0.00,,,0.03,113,Wunderground v.1.15,2013-03-06 18:35:00,
2013-03-06 13:40:00,40.2,35.8,29.80,North,357,10.0,35.0,84,0.00,,,0.03,116,Wunderground v.1.15,2013-03-06 18:40:00,
2013-03-06 13:45:00,39.9,35.8,29.81,NNE,15,13.0,29.0,85,0.00,,,0.03,79,Wunderground v.1.15,2013-03-06 18:45:00,
2013-03-06 13:50:00,39.0,35.5,29.80,WNW,291,5.0,29.0,87,0.00,,,0.03,74,Wunderground v.1.15,2013-03-06 18:50:00,
2013-03-06 13:55:00,38.8,35.6,29.81,North,9,7.0,23.0,88,0.00,,,0.03,77,Wunderground v.1.15,2013-03-06 18:55:00,
2013-03-06 14:00:00,38.9,35.6,29.81,NNW,342,6.0,23.0,88,0.00,,,0.03,49,Wunderground v.1.15,2013-03-06 19:00:00,
2013-03-06 14:05:00,38.8,35.6,29.81,NE,46,15.0,28.0,88,0.00,,,0.03,47,Wunderground v.1.15,2013-03-06 19:05:00,
2013-03-06 14:10:00,38.5,35.5,29.81,NNE,12,9.0,28.0,89,0.00,,,0.04,51,Wunderground v.1.15,2013-03-06 19:10:00,
2013-03-06 14:16:00,38.3,35.6,29.81,North,6,15.0,17.0,90,0.00,,,0.04,49,Wunderground v.1.15,2013-03-06 19:16:00,
2013-03-06 14:21:00,38.1,35.4,29.82,NNE,28,21.0,21.0,90,0.06,,,0.05,49,Wunderground v.1.15,2013-03-06 19:21:00,
2013-03-06 14:26:00,38.0,35.3,29.81,NNW,330,6.0,24.0,90,0.06,,,0.05,49,Wunderground v.1.15,2013-03-06 19:26:00,
2013-03-06 14:31:00,38.0,35.3,29.82,North,4,11.0,11.0,90,0.05,,,0.06,46,Wunderground v.1.15,2013-03-06 19:31:00,
2013-03-06 14:37:00,38.1,35.1,29.82,North,11,15.0,21.0,89,0.05,,,0.06,42,Wunderground v.1.15,2013-03-06 19:37:00,
2013-03-06 14:42:00,38.1,35.1,29.82,North,354,21.0,21.0,89,0.05,,,0.06,42,Wunderground v.1.15,2013-03-06 19:42:00,
2013-03-06 14:47:00,38.1,35.1,29.83,NNE,26,18.0,28.0,89,0.04,,,0.06,32,Wunderground v.1.15,2013-03-06 19:47:00,
2013-03-06 14:52:00,37.9,34.9,29.83,NW,323,4.0,12.0,89,0.00,,,0.06,40,Wunderground v.1.15,2013-03-06 19:52:00,
2013-03-06 14:57:00,37.8,34.8,29.83,North,2,19.0,29.0,89,0.00,,,0.07,54,Wunderground v.1.15,2013-03-06 19:57:00,
2013-03-06 15:02:00,37.8,34.6,29.83,NNW,337,6.0,32.0,88,0.00,,,0.07,62,Wunderground v.1.15,2013-03-06 20:02:00,
2013-03-06 15:07:00,38.0,34.5,29.83,NNE,19,15.0,32.0,87,0.00,,,0.07,67,Wunderground v.1.15,2013-03-06 20:07:00,
2013-03-06 15:12:00,38.2,34.4,29.84,NNE,23,19.0,19.0,86,0.00,,,0.07,77,Wunderground v.1.15,2013-03-06 20:12:00,
2013-03-06 15:17:00,38.4,34.3,29.84,North,3,9.0,25.0,85,0.00,,,0.07,65,Wunderground v.1.15,2013-03-06 20:17:00,
2013-03-06 15:22:00,38.6,34.2,29.84,North,357,21.0,29.0,84,0.00,,,0.07,51,Wunderground v.1.15,2013-03-06 20:22:00,
2013-03-06 15:28:00,38.7,34.0,29.84,North,352,11.0,29.0,83,0.00,,,0.07,40,Wunderground v.1.15,2013-03-06 20:28:00,
2013-03-06 15:33:00,38.6,33.6,29.85,North,7,16.0,26.0,82,0.00,,,0.07,47,Wunderground v.1.15,2013-03-06 20:33:00,
2013-03-06 15:38:00,38.6,33.9,29.85,North,6,21.0,26.0,83,0.00,,,0.07,56,Wunderground v.1.15,2013-03-06 20:38:00,
2013-03-06 15:43:00,38.5,33.5,29.85,WNW,289,5.0,35.0,82,0.00,,,0.07,47,Wunderground v.1.15,2013-03-06 20:43:00,
2013-03-06 15:48:00,38.4,33.7,29.86,North,7,21.0,35.0,83,0.00,,,0.07,47,Wunderground v.1.15,2013-03-06 20:48:00,
2013-03-06 15:53:00,38.3,33.3,29.85,ENE,68,4.0,24.0,82,0.00,,,0.07,58,Wunderground v.1.15,2013-03-06 20:53:00,
2013-03-06 15:58:00,38.3,33.6,29.85,NNE,16,22.0,25.0,83,0.00,,,0.07,47,Wunderground v.1.15,2013-03-06 20:58:00,
2013-03-06 16:03:00,38.1,33.4,29.86,North,9,6.0,20.0,83,0.00,,,0.07,47,Wunderground v.1.15,2013-03-06 21:03:00,
2013-03-06 16:08:00,38.0,33.6,29.86,North,350,17.0,25.0,84,0.00,,,0.07,37,Wunderground v.1.15,2013-03-06 21:08:00,
2013-03-06 16:13:00,37.8,33.7,29.86,NNW,337,8.0,30.0,85,0.00,,,0.07,32,Wunderground v.1.15,2013-03-06 21:13:00,
2013-03-06 16:18:00,37.6,33.8,29.86,NNE,13,9.0,30.0,86,0.00,,,0.07,30,Wunderground v.1.15,2013-03-06 21:18:00,
2013-03-06 16:23:00,37.3,33.8,29.86,ESE,110,8.0,27.0,87,0.00,,,0.07,26,Wunderground v.1.15,2013-03-06 21:23:00,
2013-03-06 16:29:00,37.2,34.0,29.86,North,356,5.0,29.0,88,0.00,,,0.08,25,Wunderground v.1.15,2013-03-06 21:29:00,
2013-03-06 16:34:00,37.1,34.2,29.87,North,2,5.0,15.0,89,0.00,,,0.08,16,Wunderground v.1.15,2013-03-06 21:34:00,
2013-03-06 16:39:00,37.0,34.1,29.87,NNE,20,9.0,19.0,89,0.00,,,0.08,21,Wunderground v.1.15,2013-03-06 21:39:00,
2013-03-06 16:44:00,36.8,34.1,29.88,NNE,27,8.0,19.0,90,0.00,,,0.08,19,Wunderground v.1.15,2013-03-06 21:44:00,
2013-03-06 16:50:00,36.7,34.0,29.88,North,11,11.0,22.0,90,0.00,,,0.08,12,Wunderground v.1.15,2013-03-06 21:50:00,
2013-03-06 16:55:00,36.6,34.2,29.88,NNW,335,7.0,26.0,91,0.00,,,0.09,14,Wunderground v.1.15,2013-03-06 21:55:00,
2013-03-06 17:00:00,36.6,34.2,29.88,NNW,344,5.0,26.0,91,0.00,,,0.09,21,Wunderground v.1.15,2013-03-06 22:00:00,
2013-03-06 17:05:00,36.6,33.9,29.88,ESE,106,6.0,25.0,90,0.00,,,0.09,18,Wunderground v.1.15,2013-03-06 22:05:00,
2013-03-06 17:10:00,36.6,33.9,29.89,NNE,19,21.0,26.0,90,0.00,,,0.09,19,Wunderground v.1.15,2013-03-06 22:10:00,
2013-03-06 17:15:00,36.6,33.9,29.89,NNE,25,5.0,21.0,90,0.00,,,0.09,19,Wunderground v.1.15,2013-03-06 22:15:00,
2013-03-06 17:20:00,36.6,33.9,29.88,North,11,7.0,22.0,90,0.00,,,0.09,19,Wunderground v.1.15,2013-03-06 22:20:00,
2013-03-06 17:25:00,36.6,33.9,29.89,NW,325,1.0,23.0,90,0.00,,,0.09,18,Wunderground v.1.15,2013-03-06 22:25:00,
2013-03-06 17:30:00,36.7,33.8,29.89,NNW,347,5.0,24.0,89,0.00,,,0.09,12,Wunderground v.1.15,2013-03-06 22:30:00,
2013-03-06 17:35:00,36.9,33.7,29.89,North,359,10.0,27.0,88,0.00,,,0.09,11,Wunderground v.1.15,2013-03-06 22:35:00,
2013-03-06 17:41:00,37.1,33.6,29.89,North,6,16.0,16.0,87,0.00,,,0.09,9,Wunderground v.1.15,2013-03-06 22:41:00,
2013-03-06 17:46:00,37.1,33.6,29.90,NNE,31,12.0,23.0,87,0.00,,,0.09,5,Wunderground v.1.15,2013-03-06 22:46:00,
2013-03-06 17:51:00,37.1,33.3,29.90,NNE,15,19.0,20.0,86,0.00,,,0.09,0,Wunderground v.1.15,2013-03-06 22:51:00,
2013-03-06 17:56:00,37.2,33.1,29.90,NNW,337,11.0,28.0,85,0.00,,,0.09,0,Wunderground v.1.15,2013-03-06 22:56:00,
2013-03-06 18:01:00,37.2,33.1,29.89,NNE,21,14.0,14.0,85,0.00,,,0.09,0,Wunderground v.1.15,2013-03-06 23:01:00,
2013-03-06 18:06:00,37.2,33.1,29.90,NNE,16,14.0,28.0,85,0.00,,,0.09,0,Wunderground v.1.15,2013-03-06 23:06:00,
2013-03-06 18:11:00,37.4,33.0,29.90,NNE,24,13.0,14.0,84,0.00,,,0.09,0,Wunderground v.1.15,2013-03-06 23:11:00,
2013-03-06 18:16:00,37.6,32.9,29.90,North,355,13.0,24.0,83,0.00,,,0.09,0,Wunderground v.1.15,2013-03-06 23:16:00,
2013-03-06 18:21:00,37.8,32.8,29.91,NNE,25,12.0,13.0,82,0.00,,,0.09,0,Wunderground v.1.15,2013-03-06 23:21:00,
2013-03-06 18:26:00,38.0,32.7,29.91,NNW,342,7.0,22.0,81,0.00,,,0.09,0,Wunderground v.1.15,2013-03-06 23:26:00,
2013-03-06 18:31:00,38.2,32.3,29.91,North,4,8.0,13.0,79,0.00,,,0.09,0,Wunderground v.1.15,2013-03-06 23:31:00,
2013-03-06 18:37:00,38.5,31.9,29.92,NNE,22,11.0,22.0,77,0.00,,,0.09,0,Wunderground v.1.15,2013-03-06 23:37:00,
2013-03-06 18:42:00,38.8,32.2,29.92,WNW,300,14.0,15.0,77,0.00,,,0.09,0,Wunderground v.1.15,2013-03-06 23:42:00,
2013-03-06 18:47:00,38.9,32.3,29.92,NNE,30,11.0,24.0,77,0.00,,,0.09,0,Wunderground v.1.15,2013-03-06 23:47:00,
2013-03-06 18:52:00,38.9,32.0,29.92,East,84,6.0,20.0,76,0.00,,,0.09,0,Wunderground v.1.15,2013-03-06 23:52:00,
2013-03-06 18:57:00,39.0,31.7,29.92,NNE,27,19.0,28.0,75,0.00,,,0.09,0,Wunderground v.1.15,2013-03-06 23:57:00,
2013-03-06 19:02:00,39.0,32.1,29.92,NNE,15,15.0,20.0,76,0.00,,,0.09,0,Wunderground v.1.15,2013-03-07 00:02:00,
2013-03-06 19:07:00,38.9,31.6,29.93,NNE,18,19.0,23.0,75,0.00,,,0.09,0,Wunderground v.1.15,2013-03-07 00:07:00,
2013-03-06 19:12:00,38.9,32.0,29.93,NE,46,11.0,18.0,76,0.00,,,0.09,0,Wunderground v.1.15,2013-03-07 00:12:00,
2013-03-06 19:17:00,38.9,31.6,29.93,NNE,17,20.0,20.0,75,0.00,,,0.09,0,Wunderground v.1.15,2013-03-07 00:17:00,
2013-03-06 19:22:00,38.9,32.0,29.93,NNE,21,9.0,22.0,76,0.00,,,0.09,0,Wunderground v.1.15,2013-03-07 00:22:00,
2013-03-06 19:27:00,39.0,31.4,29.93,NNE,29,15.0,23.0,74,0.00,,,0.09,0,Wunderground v.1.15,2013-03-07 00:27:00,
2013-03-06 19:32:00,39.0,31.4,29.93,NNE,18,16.0,23.0,74,0.00,,,0.09,0,Wunderground v.1.15,2013-03-07 00:32:00,
2013-03-06 19:37:00,39.1,31.5,29.93,NE,39,12.0,29.0,74,0.00,,,0.09,0,Wunderground v.1.15,2013-03-07 00:37:00,
2013-03-06 19:42:00,39.1,31.8,29.93,NNE,14,14.0,19.0,75,0.00,,,0.09,0,Wunderground v.1.15,2013-03-07 00:42:00,
2013-03-06 19:47:00,39.0,31.4,29.94,NNE,15,7.0,26.0,74,0.00,,,0.09,0,Wunderground v.1.15,2013-03-07 00:47:00,
2013-03-06 19:52:00,39.0,31.7,29.94,NNE,14,13.0,26.0,75,0.00,,,0.09,0,Wunderground v.1.15,2013-03-07 00:52:00,
2013-03-06 19:57:00,38.9,31.6,29.94,North,10,13.0,26.0,75,0.00,,,0.09,0,Wunderground v.1.15,2013-03-07 00:57:00,
2013-03-06 20:02:00,38.8,31.9,29.94,North,6,22.0,30.0,76,0.00,,,0.09,0,Wunderground v.1.15,2013-03-07 01:02:00,
2013-03-06 20:07:00,38.7,31.8,29.94,NNE,23,23.0,30.0,76,0.00,,,0.09,0,Wunderground v.1.15,2013-03-07 01:07:00,
2013-03-06 20:12:00,38.6,31.7,29.94,NNE,29,11.0,21.0,76,0.00,,,0.09,0,Wunderground v.1.15,2013-03-07 01:12:00,
2013-03-06 20:17:00,38.4,31.8,29.95,North,2,16.0,29.0,77,0.00,,,0.09,0,Wunderground v.1.15,2013-03-07 01:17:00,
2013-03-06 20:23:00,38.4,31.8,29.95,NNW,329,4.0,23.0,77,0.00,,,0.09,0,Wunderground v.1.15,2013-03-07 01:23:00,
2013-03-06 20:28:00,38.3,31.7,29.95,NNE,21,11.0,23.0,77,0.00,,,0.09,0,Wunderground v.1.15,2013-03-07 01:28:00,
2013-03-06 20:33:00,38.2,31.9,29.95,North,352,6.0,22.0,78,0.00,,,0.09,0,Wunderground v.1.15,2013-03-07 01:33:00,
2013-03-06 20:38:00,38.2,31.6,29.95,North,11,5.0,23.0,77,0.00,,,0.09,0,Wunderground v.1.15,2013-03-07 01:38:00,
2013-03-06 20:43:00,38.1,31.8,29.95,NNE,25,20.0,25.0,78,0.00,,,0.09,0,Wunderground v.1.15,2013-03-07 01:43:00,
2013-03-06 20:48:00,37.9,32.0,29.95,North,6,19.0,26.0,79,0.00,,,0.09,0,Wunderground v.1.15,2013-03-07 01:48:00,
2013-03-06 20:53:00,37.7,32.1,29.95,North,8,18.0,23.0,80,0.00,,,0.09,0,Wunderground v.1.15,2013-03-07 01:53:00,
2013-03-06 20:58:00,37.5,31.9,29.96,North,8,7.0,23.0,80,0.00,,,0.09,0,Wunderground v.1.15,2013-03-07 01:58:00,
2013-03-06 21:03:00,37.5,31.6,29.96,NE,38,11.0,24.0,79,0.00,,,0.09,0,Wunderground v.1.15,2013-03-07 02:03:00,
2013-03-06 21:08:00,37.5,31.9,29.96,NNE,22,15.0,30.0,80,0.00,,,0.09,0,Wunderground v.1.15,2013-03-07 02:08:00,
2013-03-06 21:13:00,37.4,31.8,29.96,NNE,14,21.0,27.0,80,0.00,,,0.09,0,Wunderground v.1.15,2013-03-07 02:13:00,
2013-03-06 21:18:00,37.3,32.0,29.96,North,10,21.0,27.0,81,0.00,,,0.09,0,Wunderground v.1.15,2013-03-07 02:18:00,
2013-03-06 21:23:00,37.1,32.1,29.96,NNE,22,14.0,30.0,82,0.00,,,0.09,0,Wunderground v.1.15,2013-03-07 02:23:00,
2013-03-06 21:28:00,36.9,31.9,29.97,NNE,19,15.0,30.0,82,0.00,,,0.09,0,Wunderground v.1.15,2013-03-07 02:28:00,
2013-03-06 21:33:00,36.7,32.0,29.97,NE,46,14.0,24.0,83,0.00,,,0.09,0,Wunderground v.1.15,2013-03-07 02:33:00,
2013-03-06 21:38:00,36.6,32.2,29.97,NE,35,12.0,24.0,84,0.00,,,0.09,0,Wunderground v.1.15,2013-03-07 02:38:00,
2013-03-06 21:43:00,36.4,32.0,29.97,NNE,18,15.0,24.0,84,0.00,,,0.09,0,Wunderground v.1.15,2013-03-07 02:43:00,
2013-03-06 21:48:00,36.0,31.9,29.98,NNE,21,15.0,26.0,85,0.00,,,0.09,0,Wunderground v.1.15,2013-03-07 02:48:00,
2013-03-06 21:53:00,35.6,32.1,29.98,NNE,13,7.0,24.0,87,0.00,,,0.09,0,Wunderground v.1.15,2013-03-07 02:53:00,
2013-03-06 21:58:00,35.3,32.1,29.98,NNE,20,14.0,24.0,88,0.00,,,0.09,0,Wunderground v.1.15,2013-03-07 02:58:00,
2013-03-06 22:03:00,35.1,32.2,29.97,North,7,9.0,16.0,89,0.00,,,0.10,0,Wunderground v.1.15,2013-03-07 03:03:00,
2013-03-06 22:08:00,34.8,31.9,29.98,North,352,4.0,16.0,89,0.00,,,0.10,0,Wunderground v.1.15,2013-03-07 03:08:00,
2013-03-06 22:13:00,34.5,31.9,29.98,NNW,335,14.0,14.0,90,0.00,,,0.10,0,Wunderground v.1.15,2013-03-07 03:13:00,
2013-03-06 22:18:00,34.3,31.9,29.98,NNE,17,4.0,18.0,91,0.00,,,0.10,0,Wunderground v.1.15,2013-03-07 03:18:00,
2013-03-06 22:24:00,34.2,31.8,29.98,NW,311,3.0,8.0,91,0.00,,,0.10,0,Wunderground v.1.15,2013-03-07 03:24:00,
2013-03-06 22:29:00,34.0,31.6,29.98,NW,311,3.0,8.0,91,0.00,,,0.10,0,Wunderground v.1.15,2013-03-07 03:29:00,
2013-03-06 22:34:00,33.9,31.8,29.98,NNE,29,9.0,13.0,92,0.00,,,0.11,0,Wunderground v.1.15,2013-03-07 03:34:00,
2013-03-06 22:39:00,33.9,31.8,29.98,NNW,347,5.0,15.0,92,0.00,,,0.11,0,Wunderground v.1.15,2013-03-07 03:39:00,
2013-03-06 22:44:00,33.9,31.8,29.98,NNW,335,6.0,14.0,92,0.00,,,0.11,0,Wunderground v.1.15,2013-03-07 03:44:00,
2013-03-06 22:49:00,33.9,31.8,29.98,NNW,346,6.0,18.0,92,0.00,,,0.11,0,Wunderground v.1.15,2013-03-07 03:49:00,
2013-03-06 22:55:00,33.9,31.8,29.98,North,356,8.0,18.0,92,0.00,,,0.11,0,Wunderground v.1.15,2013-03-07 03:55:00,
2013-03-06 23:00:00,33.9,31.8,29.98,NNE,30,14.0,23.0,92,0.00,,,0.11,0,Wunderground v.1.15,2013-03-07 04:00:00,
2013-03-06 23:05:00,33.9,31.8,29.99,NNE,17,5.0,13.0,92,0.00,,,0.11,0,Wunderground v.1.15,2013-03-07 04:05:00,
2013-03-06 23:11:00,33.9,31.8,29.99,NNW,335,15.0,15.0,92,0.00,,,0.11,0,Wunderground v.1.15,2013-03-07 04:11:00,
2013-03-06 23:15:00,33.9,31.8,29.99,NNE,12,18.0,18.0,92,0.00,,,0.11,0,Wunderground v.1.15,2013-03-07 04:15:00,
2013-03-06 23:20:00,33.8,31.7,29.99,North,352,2.0,7.0,92,0.00,,,0.11,0,Wunderground v.1.15,2013-03-07 04:20:00,
2013-03-06 23:25:00,33.9,31.8,29.99,WNW,303,4.0,11.0,92,0.00,,,0.11,0,Wunderground v.1.15,2013-03-07 04:25:00,
2013-03-06 23:31:00,33.9,31.8,29.99,NW,323,5.0,6.0,92,0.00,,,0.11,0,Wunderground v.1.15,2013-03-07 04:31:00,
2013-03-06 23:36:00,33.9,31.8,29.99,NNE,18,7.0,11.0,92,0.00,,,0.11,0,Wunderground v.1.15,2013-03-07 04:36:00,
2013-03-06 23:41:00,34.0,31.6,29.98,NNW,332,3.0,5.0,91,0.00,,,0.11,0,Wunderground v.1.15,2013-03-07 04:41:00,
2013-03-06 23:46:00,34.0,31.6,29.98,North,356,6.0,13.0,91,0.00,,,0.11,0,Wunderground v.1.15,2013-03-07 04:46:00,
2013-03-06 23:51:00,34.0,31.4,29.98,NNW,344,5.0,8.0,90,0.00,,,0.11,0,Wunderground v.1.15,2013-03-07 04:51:00,
2013-03-06 23:56:00,34.2,31.3,29.98,North,7,6.0,13.0,89,0.00,,,0.11,0,Wunderground v.1.15,2013-03-07 04:56:00,